Hourly Data Report for July 18, 2021

SARNIA
ONTARIO
Current Station Operator: NAVCAN

42°59'58.000" N
82°18'32.000" W
181.40 m
6127510
71704
YZR

Download Data

Hourly Data (July 2021)
Hourly Data Report for July 18, 2021
TIME
LST
Temp Definition
°C
Dew Point Definition
°C
Rel Hum Definition
%
Precip. Amount Definition
mm

Wind Dir Definition
10's deg

Wind Spd Definition
km/h
Visibility Definition
km
Stn Press Definition
kPa
Hmdx Definition


Wind Chill Definition


Weather Definition


00:00 18.3 17.1 93 0.0 33 8 16.1 99.95     LegendNANA
01:00 18.4 16.9 91 0.0 33 5 16.1 99.97     LegendNANA
02:00 17.7 16.8 94 0.0 30 5 16.1 99.96     LegendNANA
03:00 17.6 15.8 89 0.0 30 5 16.1 99.96     LegendNANA
04:00 17.0 15.4 90 0.0 29 5 16.1 99.99     LegendNANA
05:00 16.8 15.2 90 0.0 27 5 16.1 100.02     LegendNANA
06:00 17.0 14.9 87 0.0 27 4 16.1 100.06     LegendNANA
07:00 19.0 15.9 82 0.0 LegendMM 4 16.1 100.08     LegendNANA
08:00 20.8 15.9 73 0.0 31 17 16.1 100.10 25   LegendNANA
09:00 22.5 16.6 69 0.0 33 18 16.1 100.10 28   LegendNANA
10:00 23.3 16.9 67 0.0 34 17 16.1 100.09 29   LegendNANA
11:00 23.9 17.1 65 0.0 1 21 16.1 100.09 29   LegendNANA
12:00 23.4 16.2 63 0.0 2 24 16.1 100.10 28   LegendNANA
13:00 24.2 16.3 61 0.0 2 21 16.1 100.06 29   LegendNANA
14:00 23.6 16.0 62 0.0 3 21 16.1 100.05 28   LegendNANA
15:00 22.8 16.5 67 0.0 3 15 16.1 100.01 28   LegendNANA
16:00 23.3 15.7 62 0.0 3 11 16.1 99.98 28   LegendNANA
17:00 23.1 15.4 62 0.0 4 8 16.1 99.98 27   LegendNANA
18:00 22.3 16.4 69 0.0 1 8 16.1 99.94 27   LegendNANA
19:00 21.5 16.8 74 0.0   0 16.1 99.92 27   LegendNANA
20:00 20.3 16.9 81 0.0   0 16.1 99.90 26   LegendNANA
21:00 19.7 16.2 80 0.0   0 16.1 99.93     LegendNANA
22:00 18.5 16.2 86 0.0   0 16.1 99.93     LegendNANA
23:00 17.7 15.9 89 0.0   0 12.9 99.94     LegendNANA

Notes on Data Quality.

Legend

  • E = Estimated
  • M = Missing
  • NA = Not Available*
  • [empty] = Indicates an unobserved value
Date modified: